Location: Moscow
(55.7500°N, 37.5830°E)
Time: 21:36:35
(UTC+03:00)

N. Korean satellite - Pass Details

Date: 26 February 2021
Orbit: 452 x 499 km, 97.2° (Epoch: 20 April)

Event Time Altitude Azimuth Distance (km) Brightness Sun altitude
Rises 05:52:55 0° 17° (NNE) 2,500 10.5 -14.1°
Reaches altitude 10° 05:54:59 10° 22° (NNE) 1,626 9.6 -13.8°
Maximum altitude 05:58:25 54° 101° (E) 576 7.3 -13.4°
Drops below altitude 10° 06:01:52 10° 180° (S) 1,637 9.2 -12.9°
Sets 06:03:58 0° 185° (S) 2,519 10.1 -12.6°
